Regional Weather Roundup
Issued by NWS Jackson, KY

Home | Current Version | Previous Version | Graphics & Text | Print | Product List | Glossary On
Versions: 1 2 3 4 5 6 7 8 9 10 11 12 13 14 15 16 17 18 19 20 21 22 23 24 25 26 27 28 29 30 31 32 33 34 35 36 37 38 39 40 41 42 43 44 45 46 47 48 49 50
000
ASUS43 KJKL 231010
RWRJKL

EAST KENTUCKY HOURLY WEATHER ROUNDUP
NATIONAL WEATHER SERVICE JACKSON KY
600 AM EDT SAT JUL 23 2016

NOTE: "FAIR" INDICATES FEW OR NO CLOUDS BELOW 12,000 FEET WITH
NO SIGNIFICANT WEATHER AND/OR OBSTRUCTIONS TO VISIBILITY.

* THESE REPORTS ARE NOT UNDER NWS QUALITY CONTROL AND MAY NOT
  REPORT WEATHER SUCH AS PRECIPITATION AND FOG.

KYZ079-080-083-085-087-088-110-112-115-119-120-231100
...EASTERN KENTUCKY...

CITY           SKY/WX    TMP DP  RH WIND       PRES   REMARKS
JACKSON        PTCLDY    71  68  90 CALM      30.06S
LONDON         CLOUDY    72  69  90 NE3       30.05S
SOMERSET*      CLEAR     70  70 100 CALM      30.05S FOG
MONTICELLO*    CLOUDY   N/A N/A N/A W8        30.05S HAZE
WILLIAMSBURG*  CLOUDY    70  70 100 CALM      30.05S
MIDDLESBORO*   CLOUDY    72  71  96 CALM      30.06S
HARLAN APT*    CLOUDY    72  70  94 CALM      30.07S
PIKE CO APT*   FOG       69  69 100 CALM      30.07S VSB 1
MOREHEAD APT*  FOG       70  68  94 SE3       30.06S VSB<1/4
ASHLAND*       CLOUDY    68  66  94 CALM      30.01S VSB 1/2
$$

KYZ035-036-041-042-044-050-067-078-099-231100
...CENTRAL KENTUCKY...

CITY           SKY/WX    TMP DP  RH WIND       PRES   REMARKS
MT STERLING*   CLEAR     68  68 100 CALM      30.06R FOG
FLEMING/MASON* CLEAR     69  68  99 CALM      30.05S FOG
DANVILLE*      CLEAR     68  68 100 CALM      30.05S
RICHMOND*      CLEAR     70  68  94 CALM      30.03S
LEXINGTON      CLEAR     71  68  90 CALM      30.04R
FRANKFORT      CLEAR     71  68  90 CALM      30.02R
LOUISVILLE     PTCLDY    75  71  87 E3        30.01R
LEBANON*         N/A     72  72 100 E3        30.03S
GLASGOW*       PTCLDY    72  72 100 CALM      30.01S
BOWLING GREEN  MOCLDY    74  73  97 CALM      30.00F FOG
$$

KYZ091>093-OHZ055-061-077-WVZ005-015-034-035-042-231100
...SOUTHERN OHIO/WEST VIRGINIA...

CITY           SKY/WX    TMP DP  RH WIND       PRES   REMARKS
COVINGTON      PTCLDY    74  72  93 N5        30.02R
COLUMBUS       CLEAR     70  69  97 SE3       30.02R
DAYTON         PTCLDY    71  70  96 W3        30.03F
WILMINGTON     FOG       68  68 100 CALM      30.03S VSB 1
HUNTINGTON     FOG       69  68  96 CALM      30.03S VSB 1/4
CHARLESTON     FOG       68  67  96 CALM      30.05R VSB 1
PINEVILLE*     FOG       69  66  89 MISG      30.13S VSB 3/4
BECKLEY          N/A     68  66  93 CALM      30.12S
BLUEFIELD        N/A     68  63  84 CALM      30.15R
LOGAN CO APT*    N/A     70  70 100 CALM      30.06S FOG
$$

VAZ002-007-008-TNZ017-027-036-066-071-231100
...SOUTHWEST VIRGINIA/EAST TENNESSEE...

CITY           SKY/WX    TMP DP  RH WIND       PRES   REMARKS
WISE*            N/A     70  66  88 CALM      30.15S
JONESVILLE*      N/A     73  72  94 CALM      30.09R
ABINGDON*        N/A     69  67  94 CALM      30.10S
BRISTOL        PTCLDY    69  67  93 CALM      30.07R
MORRISTOWN*    CLOUDY    75  72  88 CALM      30.04S
SEVIERVILLE*   MOSUNNY   73  70  88 CALM      30.03R
KNOXVILLE      CLOUDY    78  71  79 CALM      30.02R
OAK RIDGE      CLOUDY    78  73  84 CALM      30.04R
CROSSVILLE     CLOUDY    73  72  96 CALM      30.08S FOG
NASHVILLE      MOCLDY    75  72  90 CALM      30.00S
$$

...KEY TO REMARKS...
VSB - VISIBILITY IN MILES
WCI - WIND CHILL INDEX
HX  - HEAT INDEX

$$



USA.gov is the U.S. government's official web portal to all federal, state and local government web resources and services.